When you browse on this site, cookies collect data to enhance your experience and personalize the content and advertising you see.
Visit our Privacy Policy to learn more. By continuing to use the site, you agree to this use of cookies and data.
  • In United Kingdom
  • List of Countries
  • For 7 days
  • Water Temperature
  • Satellite Maps
  • Weather Map
  • Weather Widgets
  • user-avatar
    Login

    Hourly Weather Ijtimoiy

    Today, 22 February, Friday

    Time Temperature Precipitation Wind Pressure Humidity
    00:00 -5°C° 0 mm 3 mps 690 mmHg 53%
    01:00 -5°C° 0 mm 3 mps 690 mmHg 49%
    02:00 -5°C° 0 mm 4 mps 689 mmHg 45%
    03:00 -5°C° 0 mm 4 mps 689 mmHg 43%
    04:00 -5°C° 0 mm 3 mps 688 mmHg 41%
    05:00 -5°C° 0 mm 3 mps 688 mmHg 39%
    06:00 -4°C° 0 mm 3 mps 688 mmHg 37%
    07:00 -4°C° 0 mm 3 mps 688 mmHg 36%
    08:00 -2°C° 0 mm 3 mps 688 mmHg 34%
    09:00 -1°C° 0 mm 3 mps 687 mmHg 32%
    10:00 +2°C° 0 mm 2 mps 687 mmHg 30%
    11:00 +4°C° 0 mm 2 mps 687 mmHg 27%
    12:00 +5°C° 0 mm 2 mps 686 mmHg 27%
    13:00 +6°C° 0 mm 2 mps 686 mmHg 28%
    14:00 +6°C° 0 mm 2 mps 686 mmHg 28%
    15:00 +7°C° 0 mm 1 mps 686 mmHg 31%
    16:00 +7°C° 0 mm 1 mps 686 mmHg 33%
    17:00 +6°C° 0 mm 1 mps 686 mmHg 36%
    18:00 +4°C° 0 mm 2 mps 686 mmHg 37%
    19:00 +2°C° 0 mm 3 mps 686 mmHg 39%
    20:00 +1°C° 0 mm 3 mps 686 mmHg 40%
    21:00 -1°C° 0 mm 4 mps 686 mmHg 38%
    22:00 -1°C° 0 mm 4 mps 686 mmHg 36%
    23:00 -1°C° 0 mm 4 mps 686 mmHg 34%

    Tomorrow, 23 February, Saturday

    Time Temperature Precipitation Wind Pressure Humidity
    00:00 -1°C° 0 mm 4 mps 686 mmHg 32%
    01:00 -1°C° 0 mm 4 mps 686 mmHg 31%
    02:00 -1°C° 0 mm 3 mps 686 mmHg 29%
    03:00 -1°C° 0 mm 3 mps 686 mmHg 28%
    04:00 -1°C° 0 mm 3 mps 685 mmHg 27%
    05:00 -1°C° 0 mm 3 mps 685 mmHg 27%
    06:00 -1°C° 0 mm 3 mps 685 mmHg 26%
    07:00 0°C° 0 mm 3 mps 685 mmHg 26%
    08:00 0°C° 0 mm 3 mps 686 mmHg 26%
    09:00 +3°C° 0 mm 2 mps 685 mmHg 25%
    10:00 +6°C° 0 mm 1 mps 685 mmHg 23%
    11:00 +8°C° 0 mm 1 mps 685 mmHg 22%
    12:00 +8°C° 0 mm 1 mps 685 mmHg 24%
    13:00 +9°C° 0 mm 1 mps 684 mmHg 25%
    14:00 +9°C° 0 mm 1 mps 684 mmHg 26%
    15:00 +9°C° 0 mm 1 mps 684 mmHg 28%
    16:00 +8°C° 0 mm 1 mps 684 mmHg 30%
    17:00 +8°C° 0 mm 1 mps 684 mmHg 31%
    18:00 +7°C° 0 mm 1 mps 685 mmHg 33%
    19:00 +5°C° 0 mm 2 mps 685 mmHg 34%
    20:00 +4°C° 0 mm 2 mps 685 mmHg 36%
    21:00 +2°C° 0 mm 3 mps 685 mmHg 37%
    22:00 +2°C° 0 mm 3 mps 685 mmHg 37%
    23:00 +1°C° 0 mm 3 mps 685 mmHg 38%

    Day after tomorrow, 24 February, Sunday

    Time Temperature Precipitation Wind Pressure Humidity
    00:00 +1°C° 0 mm 3 mps 684 mmHg 37%
    01:00 +1°C° 0 mm 3 mps 684 mmHg 36%
    02:00 +1°C° 0 mm 3 mps 684 mmHg 35%
    03:00 +1°C° 0 mm 3 mps 684 mmHg 34%
    04:00 0°C° 0 mm 3 mps 684 mmHg 33%
    05:00 0°C° 0 mm 3 mps 684 mmHg 32%
    06:00 0°C° 0 mm 3 mps 684 mmHg 32%
    07:00 +2°C° 0 mm 2 mps 684 mmHg 32%
    08:00 +2°C° 0 mm 2 mps 684 mmHg 32%
    09:00 +3°C° 0 mm 2 mps 684 mmHg 29%
    10:00 +6°C° 0 mm 1 mps 684 mmHg 27%
    11:00 +7°C° 0 mm 1 mps 684 mmHg 24%
    12:00 +8°C° 0 mm 1 mps 684 mmHg 25%
    13:00 +8°C° 0 mm 1 mps 683 mmHg 26%
    14:00 +9°C° 0 mm 1 mps 683 mmHg 26%
    15:00 +8°C° 0 mm 1 mps 683 mmHg 27%
    16:00 +8°C° 0 mm 1 mps 683 mmHg 29%
    17:00 +7°C° 0 mm 0 mps 684 mmHg 30%
    18:00 +7°C° 0 mm 1 mps 684 mmHg 33%
    19:00 +6°C° 0 mm 1 mps 684 mmHg 36%
    20:00 +5°C° 0 mm 1 mps 684 mmHg 39%
    21:00 +4°C° 0 mm 2 mps 684 mmHg 42%
    22:00 +3°C° 0 mm 2 mps 684 mmHg 45%
    23:00 +2°C° 0 mm 3 mps 684 mmHg 48%

    25 February, Monday

    Time Temperature Precipitation Wind Pressure Humidity
    00:00 +2°C° 0 mm 3 mps 684 mmHg 49%
    01:00 +1°C° 0 mm 3 mps 684 mmHg 50%
    02:00 +2°C° 0 mm 2 mps 684 mmHg 50%
    03:00 +2°C° 0 mm 2 mps 684 mmHg 50%
    04:00 +2°C° 0 mm 2 mps 684 mmHg 50%
    05:00 +2°C° 0 mm 2 mps 684 mmHg 50%
    06:00 +2°C° 0 mm 2 mps 684 mmHg 49%
    07:00 +2°C° 0 mm 2 mps 684 mmHg 48%
    08:00 +2°C° 0 mm 2 mps 684 mmHg 48%
    09:00 +3°C° 0 mm 2 mps 684 mmHg 43%
    10:00 +4°C° 0 mm 2 mps 684 mmHg 39%
    11:00 +6°C° 0 mm 2 mps 684 mmHg 35%
    12:00 +6°C° 0 mm 2 mps 683 mmHg 35%
    13:00 +8°C° 0 mm 1 mps 683 mmHg 36%
    14:00 +8°C° 0 mm 1 mps 683 mmHg 36%
    15:00 +8°C° 0 mm 1 mps 683 mmHg 37%
    16:00 +8°C° 0 mm 1 mps 683 mmHg 38%
    17:00 +7°C° 0 mm 1 mps 683 mmHg 40%
    18:00 +7°C° 0 mm 1 mps 683 mmHg 44%
    19:00 +6°C° 0 mm 1 mps 684 mmHg 48%
    20:00 +5°C° 0 mm 1 mps 684 mmHg 52%
    21:00 +4°C° 0 mm 2 mps 684 mmHg 54%
    22:00 +3°C° 0 mm 2 mps 684 mmHg 56%
    23:00 +2°C° 0 mm 3 mps 684 mmHg 58%

    26 February, Tuesday

    Time Temperature Precipitation Wind Pressure Humidity
    00:00 +1°C° 0 mm 3 mps 684 mmHg 57%
    01:00 +1°C° 0 mm 3 mps 683 mmHg 56%
    02:00 +1°C° 0 mm 3 mps 683 mmHg 55%
    03:00 0°C° 0 mm 3 mps 683 mmHg 54%
    04:00 0°C° 0 mm 3 mps 683 mmHg 53%
    05:00 0°C° 0 mm 3 mps 683 mmHg 52%
    06:00 0°C° 0 mm 3 mps 683 mmHg 50%
    07:00 0°C° 0 mm 3 mps 683 mmHg 49%
    08:00 0°C° 0 mm 3 mps 683 mmHg 47%
    09:00 +3°C° 0 mm 2 mps 683 mmHg 44%
    10:00 +4°C° 0 mm 2 mps 682 mmHg 41%
    11:00 +5°C° 0 mm 2 mps 682 mmHg 37%
    12:00 +6°C° 0 mm 2 mps 682 mmHg 37%
    13:00 +7°C° 0 mm 1 mps 681 mmHg 38%
    14:00 +8°C° 0 mm 1 mps 681 mmHg 38%
    15:00 +7°C° 0 mm 1 mps 681 mmHg 39%
    16:00 +7°C° 0 mm 1 mps 681 mmHg 39%
    17:00 +6°C° 0 mm 0 mps 681 mmHg 40%
    18:00 +6°C° 0 mm 1 mps 681 mmHg 44%
    19:00 +6°C° 0 mm 1 mps 682 mmHg 47%
    20:00 +4°C° 0 mm 2 mps 682 mmHg 50%
    21:00 +3°C° 0 mm 2 mps 682 mmHg 51%
    22:00 +2°C° 0 mm 3 mps 681 mmHg 51%
    23:00 +1°C° 0 mm 3 mps 681 mmHg 52%

    27 February, Wednesday

    Time Temperature Precipitation Wind Pressure Humidity
    00:00 +1°C° 0 mm 3 mps 681 mmHg 51%
    01:00 +1°C° 0 mm 3 mps 680 mmHg 49%
    02:00 0°C° 0 mm 3 mps 680 mmHg 48%
    03:00 0°C° 0 mm 3 mps 680 mmHg 47%
    04:00 0°C° 0 mm 3 mps 679 mmHg 46%
    05:00 0°C° 0 mm 3 mps 679 mmHg 45%
    06:00 0°C° 0 mm 3 mps 679 mmHg 44%
    07:00 0°C° 0 mm 3 mps 679 mmHg 43%
    08:00 0°C° 0 mm 3 mps 679 mmHg 42%
    09:00 +2°C° 0 mm 3 mps 678 mmHg 38%
    10:00 +4°C° 0 mm 2 mps 678 mmHg 35%
    11:00 +6°C° 0 mm 2 mps 677 mmHg 31%
    12:00 +7°C° 0 mm 2 mps 677 mmHg 31%
    13:00 +7°C° 0 mm 2 mps 676 mmHg 31%
    14:00 +8°C° 0 mm 2 mps 676 mmHg 31%
    15:00 +8°C° 0 mm 2 mps 676 mmHg 31%
    16:00 +9°C° 0 mm 1 mps 676 mmHg 32%
    17:00 +8°C° 0 mm 1 mps 675 mmHg 32%
    18:00 +6°C° 0 mm 2 mps 676 mmHg 36%
    19:00 +4°C° 0 mm 3 mps 676 mmHg 39%
    20:00 +3°C° 0 mm 4 mps 676 mmHg 42%
    21:00 +1°C° 0 mm 4 mps 676 mmHg 41%
    22:00 +1°C° 0 mm 4 mps 675 mmHg 39%
    23:00 +1°C° 0 mm 4 mps 675 mmHg 37%
    Show more